SWA17 KPHX-KLAX

Flight info

Callsign SWA17
Flight time N/A
Altitude 30000
Route KEENS3 WLVRN ESTWD HLYWD1
Aircraft B38M/M-SDE1FGHILORVWXY/HB1

Departure

Time 2026-04-30 22:48
Airport Phoenix Sky Harbor International Airport (KPHX)

Arrival

Time N/A
Airport Los Angeles International Airport (KLAX)
Time Latitude Longitude Altitude Speed Heading
2026-04-30 22:32 33.43410 -111.99369 1137 ft 0 kts 286°
2026-04-30 22:43 33.43405 -111.99331 1133 ft 2 kts 264°
2026-04-30 22:43 33.43422 -111.99310 1138 ft 1 kts 183°
2026-04-30 22:45 33.43328 -111.99311 1136 ft 13 kts 185°
2026-04-30 22:46 33.43208 -111.99348 1137 ft 0 kts 180°
2026-04-30 22:47 33.43106 -111.99380 1139 ft 9 kts 257°
2026-04-30 22:47 33.43105 -112.00029 1137 ft 106 kts 270°
2026-04-30 22:48 33.43081 -112.02717 1899 ft 182 kts 266°
2026-04-30 22:49 33.42788 -112.07578 4012 ft 232 kts 255°
2026-04-30 22:49 33.40960 -112.13513 6544 ft 268 kts 250°
2026-04-30 22:50 33.39507 -112.22260 10476 ft 285 kts 278°
2026-04-30 22:51 33.40189 -112.27218 11653 ft 315 kts 278°
2026-04-30 22:51 33.40947 -112.32444 13460 ft 321 kts 278°
2026-04-30 22:52 33.41335 -112.35081 14235 ft 323 kts 278°
2026-04-30 22:52 33.42122 -112.40409 15827 ft 327 kts 277°
2026-04-30 22:53 33.42918 -112.45803 17359 ft 331 kts 277°
2026-04-30 22:53 33.43722 -112.51270 18717 ft 335 kts 277°
2026-04-30 22:53 33.44127 -112.54028 19358 ft 337 kts 277°
2026-04-30 22:54 33.44935 -112.59586 20566 ft 340 kts 275°
2026-04-30 22:55 33.45062 -112.68069 22320 ft 344 kts 269°
2026-04-30 22:55 33.45169 -112.73840 23475 ft 348 kts 269°
2026-04-30 22:56 33.45415 -112.79657 24422 ft 354 kts 279°
2026-04-30 22:56 33.48115 -112.88011 25878 ft 361 kts 286°
2026-04-30 22:57 33.50048 -112.93602 26770 ft 364 kts 286°
2026-04-30 22:57 33.52008 -112.99217 27697 ft 365 kts 286°
2026-04-30 22:58 33.53937 -113.04746 28875 ft 359 kts 285°
2026-04-30 22:59 33.56796 -113.12951 29762 ft 351 kts 285°
2026-04-30 22:59 33.59600 -113.21024 29780 ft 349 kts 285°